Mariposa, CA (95338)

4:57 PM PST on December 17, 2014 (GMT -0800)
Mariposa Fairgrounds | Change Station
CLOSE
Current Station
Personal Weather Station
Location: Mariposa, CA
Elevation: 1851 ft
Nearby Weather Stations

Elev 1851 ft 37.47 °N, 119.95 °W | Updated 17 seconds ago

Overcast
Overcast
45.5 °F
Feels Like 46 °F
N
0.0
Wind Variable Wind from SSE
Gusts 0.0 mph

Today
High -- | Low -- °F
--% Chance of Precip.
Yesterday
High -- | Low -- °F
Precip. -- in
7:08 AM 4:43 PM
Waning Crescent, 18% visible
Pressure 30.05 in
Visibility 8.0 miles
Clouds Few 1400 ft
Mostly Cloudy 3300 ft
Overcast 4900 ft
Windchill 46 °F
Dew Point 44 °F
Humidity 93%
Rainfall 1.01 in
Snow Depth Not available.
UV 0 out of 12
Pollen .20 out of 12
Air Quality Not available.
Flu Activity Not available.
METAR KO22 180035Z AUTO 00000KT 8SM FEW014 BKN033 OVC049 07/07 A3005 RMK AO1

More Conditions Fewer Conditions

Pressure 30.05 in
Visibility 8.0 miles
Clouds Few 1400 ft
Mostly Cloudy 3300 ft
Overcast 4900 ft
Windchill 46 °F
Dew Point 44 °F
Humidity 93%
Rainfall 1.01 in
Snow Depth Not available.
UV 0 out of 12
Pollen .20 out of 12
Air Quality Not available.
Flu Activity Not available.
METAR KO22 180035Z AUTO 00000KT 8SM FEW014 BKN033 OVC049 07/07 A3005 RMK AO1

More Conditions Fewer Conditions

10-Day Weather Forecast

Almanac

Astronomy

Dec. 17, 2014 Rise Set
Actual Time
Civil Twilight
Nautical Twilight
Astronomical Twilight
Moon
Length of Visible Light
Length of Day
Tomorrow will be .
, % of the Moon is Illuminated

Today's Extremes

State Highs State Lows

Community

WunderPhotos

Upload Photos

1,778,837 photos uploaded!

WunderBlogs® & News

Nearby

Air Quality

  Air Quality AQ Index Pollutant
Not available.

Snow Depth

Station Depth Elevation

Earthquake Activity

City Distance Mag. Time & Date
Minimum magnitude displayed is 2.5.

Coastal Water Temperatures

Place Temperature

Nearby Weather Stations